Regional Weather Roundup
Issued by NWS

Home | Current Version | Previous Version | Graphics & Text | Print | Product List | Glossary On
Versions: 1 2 3 4 5 6 7 8 9 10 11 12 13 14 15 16 17 18 19 20 21 22 23 24 25 26 27 28 29 30 31 32 33 34 35 36 37 38 39 40 41 42 43 44 45 46 47 48 49 50
000
ASUS43 KTOP 280059
RWRKS

WEATHER ROUNDUP FOR KANSAS
NATIONAL WEATHER SERVICE GOODLAND KS
800 PM CDT THU AUG 27 2015

NOTE:  "FAIR" INDICATES FEW OR NO CLOUDS BELOW 12,000 FEET WITH NO
SIGNIFICANT WEATHER AND/OR OBSTRUCTIONS TO VISIBILITY.

KSZ001>006-013>018-027>032-041>047-280200-
NORTHWEST KANSAS

CITY           SKY/WX    TMP DP  RH WIND       PRES   REMARKS
GOODLAND       MOCLDY    85  57  38 N6        29.92S
HAYS           MOCLDY    82  63  51 S23G31    29.83R
HILL CITY      CLEAR     91  57  31 S6        29.80R
RUSSELL        CLOUDY    85  63  47 S29G36    29.82F
$$

KSZ061>065-074>080-084>089-280200-
SOUTHWEST KANSAS

CITY           SKY/WX    TMP DP  RH WIND       PRES   REMARKS
DODGE CITY     CLOUDY    85  52  32 S18G25    29.87F
ELKHART          N/A    109  58  18 S8          N/A  HX 109
GARDEN CITY    MOCLDY    78  61  55 S9        29.87F
GREAT BEND     CLOUDY    79  64  61 SE17G24   29.87S
LIBERAL        MOCLDY    90  55  31 S21G28    29.89F
PRATT          CLOUDY    81  63  54 S15G21    29.91S
$$

KSZ066>073-081>083-090>101-280200-
SOUTHEAST KANSAS

CITY           SKY/WX    TMP DP  RH WIND       PRES   REMARKS
CHANUTE        MOCLDY    74  69  85 S10       29.98S
COFFEYVILLE    MOCLDY    73  64  73 S9        29.99S
HUTCHINSON     CLOUDY    82  65  56 S14       29.91S
NEWTON         PTCLDY    81  63  54 SE10      29.95F
WICHITA INTL   MOCLDY    81  65  58 S15       29.92R
WICHITA JABRA  PTCLDY    82  66  58 S17       29.93S
WINFIELD       MOCLDY    81  67  62 SE12      29.96R
$$

KSZ007>012-019>026-033>040-048>060-102>105-280200-
NORTHEAST KANSAS

CITY           SKY/WX    TMP DP  RH WIND       PRES   REMARKS
CONCORDIA      TSTM      75  67  76 SE8       29.92R
EMPORIA        MOCLDY    75  66  73 SE16      29.94F
LAWRENCE       CLOUDY    73  65  75 SE8       29.95R
MANHATTAN      CLOUDY    77  66  68 SW5       29.90S
OLATHE IND     MOCLDY    71  67  87 SE9       29.98R
OLATHE EXE     MOCLDY    68  66  93 SE8       29.97R
SALINA         CLOUDY    84  64  50 S16G23    29.87F
TOPEKA BILLARD CLOUDY    73  66  78 SE8       29.93F
TOPEKA FORBES  CLOUDY    74  66  76 SE10      29.93F
$$



USA.gov is the U.S. government's official web portal to all federal, state and local government web resources and services.